Location: Anuling
(14.1239°N, 120.8922°E)
Time: 23:34:35
(UTC+00:00)

Cosmos 1340 Rocket - Visible Passes

Search period start: 18 April 2026 00:00
Search period end: 28 April 2026 00:00
Orbit: 483 x 515 km, 81.2° (Epoch: 18 April)

Date Brightness Start Highest point End Pass type
(mag) Time Alt. Az. Time Alt. Az. Time Alt. Az.
20 Apr 3.2 21:04:26 10° N 21:08:09 64° E 21:11:55 10° SSE visible
21 Apr 4.2 20:44:15 10° NNE 20:47:47 39° E 20:51:22 10° SSE visible
22 Apr 5.0 20:24:14 10° NNE 20:27:24 26° E 20:30:37 10° SE visible
23 Apr 5.7 20:04:27 10° NE 20:07:01 17° E 20:09:35 10° SE visible
24 Apr 6.0 19:45:17 10° ENE 19:46:37 11° E 19:47:56 10° ESE visible
25 Apr 3.4 20:58:12 10° NNW 21:01:32 30° W 21:04:55 10° SSW visible
26 Apr 2.8 20:37:31 10° NNW 20:41:10 47° W 20:44:50 10° S visible
27 Apr 2.5 20:17:01 10° N 20:20:47 77° W 20:24:36 10° S visible
